User: anonymous   Login
Location: ???????
(55.4362°N, 38.1183°E)
Time: 16:35:56
(UTC+00:00)
Language:

Cosmos 1992 Rocket - Orbit

View from above orbital plane
View from above orbital plane
View from above satellite
View from above satellite

Ground track
Ground track

The orbit data is extracted from the following two-line orbital elements,

1 19770U 89005B   21259.43355280  .00000121  00000-0  47782-4 0  9991
2 19770  74.0441  68.1761 0004111 129.9913 255.0952 14.38881563709816
Epoch (UTC): 16 September 2021 10:24:18
Eccentricity: 0.0004111
inclination: 74.0441°
perigee height: 759 km
apogee height: 765 km
right ascension of ascending node: 68.1761°
argument of perigee: 129.9913°
revolutions per day: 14.38881563
mean anomaly at epoch: 255.0952°
orbit number at epoch: 70981

The dashed part of the orbit path shows where the satellite is in the earth's shadow,  

DLR